Weather in Chihuahua

Mexico     28°38′09″N   106°04′32″W
temp.,
°C
wind,
m/s
gust,
m/s
humid.,
%
clouds,
%
prec.,
mm/h
press.,
hPa
HPBL,
m
11 april, sun
sun1100:00+20wnw5818100 0.0 1008220
03:00+18wnw2224100 0.0 1008101
06:00+16wsw222810 0.0 100841
09:00+20wsw122284 0.0 1009354
12:00+25ese131242 0.0 10082126
15:00+28ese25867 0.0 10032525
18:00+30nw2686 0.0 10013237
21:00+24nw141279 0.0 1004280
12 april, mon
mon1200:00+21wnw481518 0.0 1006235
03:00+19w2220100 0.0 100750
06:00+17wsw1124100 0.0 100837
09:00+21sw12181 0.0 1009483
12:00+26sw1380 0.0 10072379
15:00+30wsw2660 0.0 10034025
18:00+31wnw4755 0.0 10014907
21:00+25w511100 0.0 1006340
13 april, tue
tue1300:00+21wnw59150 0.0 1009231
03:00+18w11190 0.0 100957
06:00+16w11220 0.0 101136
09:00+21s11160 0.0 1012482
12:00+25ese24100 0.0 10092295
15:00+30sw4760 0.0 10044033
18:00+31w7767 0.0 10024459
21:00+24w101511100 0.0 1007581
14 april, wed
wed1400:00+21w4916100 0.0 1008273
03:00+19ese0119100 0.0 100955
06:00+17ssw222041 0.0 101041
09:00+21w12150 0.0 1012470
12:00+28wsw3670 0.0 10092613
15:00+32w78696 0.0 10053706
18:00+31w98797 0.0 10043600
21:00+25w9141112 0.0 1008489
15 april, thu
thu1500:00+21w2416100 0.0 1009164
03:00+19wsw1218100 0.0 1009170
06:00+18sw1118100 0.0 101086
09:00+21sw2414100 0.0 1010406
12:00+26wnw489100 0.0 10091951
15:00+29w8117100 0.0 10043444
18:00+28w10109100 0.0 10042870
21:00+23w81413100 0.0 1008441